Regional Weather Roundup
Issued by NWS

Home | Current Version | Previous Version | Text Only | Print | Product List | Glossary Off
Versions: 1 2 3 4 5 6 7 8 9 10 11 12 13 14 15 16 17 18 19 20 21 22 23 24 25 26 27 28 29 30 31 32 33 34 35 36 37 38 39 40 41 42 43 44 45 46 47 48 49 50

114
ASUS43 KDMX 231606
RWRIA

WEATHER ROUNDUP FOR IOWA
NATIONAL WEATHER SERVICE DES MOINES IA
1100 AM CDT FRI JUN 23 2017

NOTE: "FAIR" INDICATES FEW OR NO CLOUDS BELOW 12,000 FEET WITH NO
SIGNIFICANT WEATHER AND/OR OBSTRUCTIONS TO VISIBILITY.

* - THESE STATIONS ARE NOT NWS STATIONS...THUS NOT UNDER NWS
QUALITY CONTROL.  THEY ALSO DO NOT REPORT WEATHER SUCH
AS PRECIPITATION OR FOG.

IAZ001>003-012>014-020>022-031>034-043>046-231700-
   NORTHWEST IOWA

CITY           SKY/WX    TMP DP  RH WIND       PRES   REMARKS
CARROLL *      PTSUNNY   70  50  49 NW23G31   29.92S
CHEROKEE *     PTSUNNY   64  53  69 NW15G24   29.96R
DENISON *      PTSUNNY   68  50  52 NW22G28   29.98R
LE MARS *      CLOUDY    63  52  67 NW16G30   30.00S
ORANGE CITY *  CLOUDY    63  54  72 NW22G29   29.98R
SHELDON *      CLOUDY    64  52  63 NW16G23   29.95R
SIOUX CITY     CLOUDY    63  52  67 NW17G30   29.98F
SPENCER        CLOUDY    66  52  60 NW21G29   29.94R
STORM LAKE *     N/A     66  52  59 NW20      29.95S
$$

IAZ055>058-069>071-079>083-090>094-231700-
   SOUTHWEST IOWA

CITY           SKY/WX    TMP DP  RH WIND       PRES   REMARKS
ATLANTIC *     PTSUNNY   68  52  56 NW16G25   29.96R
AUDUBON *      CLOUDY    66  54  63 NW8G16    29.96R
CLARINDA *     CLOUDY    72  55  56 N12       29.96S
COUNCIL BLFS * PTSUNNY   66  50  55 NW17G25   30.00R
CRESTON *      CLOUDY    72  50  46 NW22G29   29.93R
HARLAN  *      CLOUDY    64  50  59 NW14      30.01R
LAMONI         SUNNY     78  53  41 N12       29.89R
RED OAK *      CLOUDY    70  52  52 N17G24    29.96S
SHENANDOAH *   CLOUDY    70  52  52 N17G24    29.96S
$$

IAZ047>049-059>061-072>074-084-231700-
   CENTRAL IOWA

CITY           SKY/WX    TMP DP  RH WIND       PRES   REMARKS
AMES           MOSUNNY   73  53  49 NW14G25   29.88R
ANKENY *       SUNNY     73  55  53 NW12G21   29.88R
BOONE *        MOSUNNY   72  52  49 NW14G25   29.88R
CHARITON *     SUNNY     75  54  46 NW12      29.88R
DES MOINES     PTSUNNY   76  52  43 NW20G32   29.87R
GRINNELL*      SUNNY     75  56  51 W13       29.85S
KNOXVILLE *    SUNNY     75  55  50 NW14      29.85R
MARSHALLTOWN   SUNNY     74  55  51 NW16      29.84R
NEWTON *       SUNNY     75  57  53 W10       29.85S
PELLA *        SUNNY     77  53  44 NW10      29.86S
PERRY *          N/A     73  51  46 NW14G21   29.90R
$$

IAZ004>006-015-016-023>025-035-036-231700-
   NORTH CENTRAL IOWA

CITY           SKY/WX    TMP DP  RH WIND       PRES   REMARKS
ALGONA *       PTSUNNY   68  54  60 NW18G25   29.90R
CLARION *        N/A     68  54  60 NW20G26   29.89R
ESTHERVILLE    CLOUDY    65  54  67 NW15      29.91R
FORT DODGE *   MOSUNNY   68  52  56 NW12G20   29.91R
MASON CITY     SUNNY     68  52  56 NW24      29.87R
FOREST CITY *    N/A     68  45  42 NW18G29   29.87R
WEBSTER CITY * SUNNY     70  54  56 NW21G26   29.87R
IOWA FALLS *     N/A     70  54  57 NW17      29.88R
$$

IAZ007>011-017>019-026>030-037>042-050>054-066-231700-
   NORTHEAST IOWA

CITY           SKY/WX    TMP DP  RH WIND       PRES   REMARKS
CEDAR RAPIDS   SUNNY     75  61  61 NW10      29.79S
CHARLES CITY * SUNNY     68  54  60 NW18G26   29.82S
CLINTON *      HAZE      73  64  73 NW10      29.77S VSB 1/2
DECORAH *      SUNNY     70  55  60 NW7G18    29.78R
DUBUQUE        SUNNY     74  60  61 W12       29.78S
MONTICELLO *     N/A     75  61  60 W10       29.78S
OELWEIN *      SUNNY     73  59  60 W16       29.80S
WATERLOO       SUNNY     73  55  53 W15G24    29.80R
$$

IAZ064-065-067-068-078-231700-
   EAST CENTRAL IOWA

CITY           SKY/WX    TMP DP  RH WIND       PRES   REMARKS
DAVENPORT      PTSUNNY   74  64  71 NW10      29.78S
IOWA CITY      SUNNY     78  57  48 NW14      29.80S
MT. PLEASANT * SUNNY     76  60  56 N10       29.80R
MUSCATINE *    SUNNY     75  61  60 N10       29.79R
QUAD CITIES    CLOUDY    77  60  55 NW9       29.76S
$$

IAZ062-063-075>077-085>089-095>099-231700-
   SOUTHEAST IOWA

CITY           SKY/WX    TMP DP  RH WIND       PRES   REMARKS
BURLINGTON     SUNNY     76  62  62 N10       29.78R
FAIRFIELD *    SUNNY     75  61  60 N12       29.81S
FORT MADISON * SUNNY     75  63  64 N12       29.80R
KEOKUK *       SUNNY     77  63  61 N13       29.78S
OSKALOOSA *      N/A     75  59  55 NW10G16   29.84R
CENTERVILLE *    N/A     75  63  64 NW10G16   29.88R
OTTUMWA        SUNNY     77  61  57 NW16      29.83R
WASHINGTON *   SUNNY     77  63  61 N10       29.82R
$$

ABBREVIATIONS USED IN REMARKS
   TC - TEMPERATURES IN CELSIUS
  WCI - WIND CHILL INDEX
   HX - HEAT INDEX
  VSB - VISIBILITY
$$





USA.gov is the U.S. government's official web portal to all federal, state and local government web resources and services.